DW6193 Weather Reports


Display with metric or nautical units.
time (UTC)temp
F
wind
direction
speed
MPH
gust
MPH
rain 1hr
in
rain 24hr
in
rain mn
in
humidity
%
barometer
mb
20260502191027 58 284 4.0 16.0 0.00 0.00 0.00 1016.1
20260502190526 56 288 7.0 16.0 0.00 0.00 0.00 1016.1
20260502190037 59 298 2.0 12.0 0.00 0.00 0.00 1016.0
20260502185526 58 291 2.0 10.0 0.00 0.00 0.00 1016.1
20260502185026 59 28 1.0 4.0 0.00 0.00 0.00 1015.8
20260502184540 59 0 1.0 4.0 0.00 0.00 0.00 1015.9
20260502184026 62 276 1.0 4.0 0.00 0.00 0.00 1015.8
20260502183531 63 338 0.0 2.0 0.00 0.00 0.00 1016.0
20260502183048 63 295 0.0 2.0 0.00 0.00 0.00 1016.0
20260502182531 61 109 0.0 2.0 0.00 0.00 0.00 1016.2
20260502182027 61 236 0.0 4.0 0.00 0.00 0.00 1016.2
20260502181538 59 99 1.0 4.0 0.00 0.00 0.00 1016.4
20260502181028 59 158 0.0 3.0 0.00 0.00 0.00 1016.5
20260502180529 59 0 0.0 4.0 0.00 0.00 0.00 1016.6
20260502164026 52 0 0.0 2.0 0.00 0.00 0.00 1016.9
20260502163526 52 0 0.0 4.0 0.00 0.00 0.00 1016.9
20260502163100 52 311 0.0 5.0 0.00 0.00 0.00 1017.1
20260502162530 51 295 1.0 5.0 0.00 0.00 0.00 1017.0
20260502162030 51 268 1.0 3.0 0.00 0.00 0.00 1017.0
20260502161537 51 268 1.0 2.0 0.00 0.00 0.00 1016.9
20260502161030 52 0 0.0 3.0 0.00 0.00 0.00 1017.0
20260502160535 52 0 0.0 3.0 0.00 0.00 0.00 1017.1
20260502152026 52 0 0.0 4.0 0.00 0.00 0.00 1017.1
20260502151538 52 114 1.0 6.0 0.00 0.00 0.00 1017.2
20260502151027 51 268 1.0 6.0 0.00 0.00 0.00 1017.2
20260502150526 51 286 1.0 6.0 0.00 0.00 0.00 1017.3
20260502130527 48 280 3.0 7.0 0.00 0.00 0.00 1016.9
20260502123527 48 290 3.0 9.0 0.00 0.00 0.00 1016.9
20260502123037 48 275 4.0 9.0 0.00 0.00 0.00 1016.9
20260502122526 49 201 3.0 9.0 0.00 0.00 0.00 1016.9
20260502122026 48 285 5.0 9.0 0.00 0.00 0.00 1017.1
20260502121536 49 300 4.0 10.0 0.00 0.00 0.00 1016.9
20260502121026 49 247 3.0 10.0 0.00 0.00 0.00 1016.9
20260502120526 49 280 4.0 10.0 0.00 0.00 0.00 1016.8
20260502115529 49 282 2.0 6.0 0.00 0.00 0.00 1016.8
20260502115025 49 286 3.0 6.0 0.00 0.00 0.00 1016.7
20260502114539 49 295 2.0 5.0 0.00 0.00 0.00 1016.8
20260502114026 49 292 2.0 5.0 0.00 0.00 0.00 1016.5
20260502113530 49 285 1.0 5.0 0.00 0.00 0.00 1016.7
20260502113037 49 290 3.0 5.0 0.00 0.00 0.00 1016.6
20260502112529 49 248 2.0 5.0 0.00 0.00 0.00 1016.6
20260502112029 49 311 1.0 8.0 0.00 0.00 0.00 1016.6
20260502111537 49 90 2.0 8.0 0.00 0.00 0.00 1016.7
20260502111026 49 280 3.0 8.0 0.00 0.00 0.00 1016.6
20260502110525 49 291 0.0 7.0 0.00 0.00 0.00 1016.7
20260502110038 49 285 3.0 12.0 0.00 0.00 0.00 1017.0
20260502105525 49 252 4.0 12.0 0.00 0.00 0.00 1016.7
20260502105025 49 290 8.0 12.0 0.00 0.00 0.00 1016.8
20260502104540 49 290 3.0 8.0 0.00 0.00 0.00 1016.7
20260502104025 51 315 1.0 3.0 0.00 0.00 0.00 1016.6
20260502103526 51 0 0.0 3.0 0.00 0.00 0.00 1016.6
20260502103038 51 0 1.0 3.0 0.00 0.00 0.00 1016.7
20260502102525 51 39 0.0 3.0 0.00 0.00 0.00 1016.7
20260502102026 50 236 0.0 4.0 0.00 0.00 0.00 1016.8
20260502101536 50 0 1.0 4.0 0.00 0.00 0.00 1017.0
20260502101026 50 0 1.0 3.0 0.00 0.00 0.00 1017.1
20260502100526 50 285 0.0 5.0 0.00 0.00 0.00 1017.1
20260502091027 49 0 3.0 6.0 0.00 0.00 0.00 1018.0
20260502090526 50 283 3.0 6.0 0.00 0.00 0.00 1017.8
20260502071025 52 341 6.0 11.0 0.00 0.00 0.00 1017.8
20260502070526 52 268 6.0 11.0 0.00 0.00 0.00 1017.8
20260502070051 52 277 4.0 10.0 0.00 0.00 0.00 1018.0
20260502065528 52 120 5.0 10.0 0.00 0.00 0.00 1017.7
20260502065027 52 272 7.0 10.0 0.00 0.00 0.00 1017.7
20260502064544 53 297 5.0 10.0 0.00 0.00 0.00 1017.6
20260502064029 53 290 2.0 6.0 0.00 0.00 0.00 1017.7
20260502063526 54 214 1.0 4.0 0.00 0.00 0.00 1017.6
20260502063040 54 39 1.0 6.0 0.00 0.00 0.00 1017.7
20260502062526 54 355 0.0 6.0 0.00 0.00 0.00 1017.7
20260502062025 54 212 1.0 6.0 0.00 0.00 0.00 1017.8
20260502061536 54 298 2.0 6.0 0.00 0.00 0.00 1017.9
20260502061025 54 259 2.0 7.0 0.00 0.00 0.00 1017.8
20260502060525 54 291 1.0 8.0 0.00 0.00 0.00 1017.9
20260502060036 54 322 1.0 12.0 0.00 0.00 0.00 1017.8
20260502055526 54 295 4.0 12.0 0.00 0.00 0.00 1017.7
20260502055028 54 286 2.0 9.0 0.00 0.00 0.00 1017.6
20260502054542 55 288 4.0 11.0 0.00 0.00 0.00 1017.6
20260502054025 55 286 5.0 11.0 0.00 0.00 0.00 1017.5
20260502053526 55 291 6.0 12.0 0.00 0.00 0.00 1017.6
20260502053043 56 257 4.0 12.0 0.00 0.00 0.00 1017.6
20260502052526 56 286 8.0 12.0 0.00 0.00 0.00 1017.6
20260502052026 56 12 3.0 10.0 0.00 0.00 0.00 1017.7
20260502051537 56 231 5.0 10.0 0.00 0.00 0.00 1017.6
20260502051026 57 227 4.0 13.0 0.00 0.00 0.00 1017.4
20260502050526 57 275 3.0 13.0 0.00 0.00 0.00 1017.5
20260502050037 57 320 8.0 13.0 0.00 0.00 0.00 1017.7
20260502045526 57 272 4.0 13.0 0.00 0.00 0.00 1017.4
20260502045029 58 286 3.0 13.0 0.00 0.00 0.00 1017.1
20260502044539 58 265 4.0 12.0 0.00 0.00 0.00 1017.2
20260502044025 58 308 4.0 11.0 0.00 0.00 0.00 1017.1
20260502043526 58 230 3.0 12.0 0.00 0.00 0.00 1016.8
20260502043041 59 298 4.0 17.0 0.00 0.00 0.00 1016.9
20260502042525 59 276 6.0 17.0 0.00 0.00 0.00 1017.0
20260502042025 59 285 7.0 17.0 0.00 0.00 0.00 1016.7
20260502041545 60 286 2.0 7.0 0.00 0.00 0.00 1016.8
20260502041029 60 99 1.0 13.0 0.00 0.00 0.00 1016.7
20260502040527 60 112 3.0 15.0 0.00 0.00 0.00 1016.9
20260502040039 61 281 3.0 15.0 0.00 0.00 0.00 1016.7
20260502035526 61 30 4.0 15.0 0.00 0.00 0.00 1016.6
20260502035027 62 193 3.0 14.0 0.00 0.00 0.00 1016.5
20260502034540 62 120 3.0 13.0 0.00 0.00 0.00 1016.4
20260502034027 63 277 2.0 13.0 0.00 0.00 0.00 1016.1
20260502033524 63 257 3.0 13.0 0.00 0.00 0.00 1016.2
20260502033040 63 158 3.0 13.0 0.00 0.00 0.00 1016.2
20260502032525 64 249 4.0 13.0 0.00 0.00 0.00 1016.1
20260502032026 64 49 4.0 11.0 0.00 0.00 0.00 1016.1
20260502031536 65 39 4.0 11.0 0.00 0.00 0.00 1016.0
20260502031027 66 281 3.0 9.0 0.00 0.00 0.00 1016.0
20260502030526 66 309 3.0 9.0 0.00 0.00 0.00 1015.8
20260502030038 66 295 2.0 9.0 0.00 0.00 0.00 1015.9
20260502025527 66 311 2.0 9.0 0.00 0.00 0.00 1015.7
20260502025027 67 279 1.0 11.0 0.00 0.00 0.00 1015.7
20260502024542 67 22 2.0 11.0 0.00 0.00 0.00 1015.5
20260502024026 67 141 2.0 8.0 0.00 0.00 0.00 1015.6
20260502023527 67 297 2.0 8.0 0.00 0.00 0.00 1015.6
20260502023039 67 243 2.0 8.0 0.00 0.00 0.00 1015.7
20260502022526 68 22 2.0 7.0 0.00 0.00 0.00 1015.6
20260502022026 68 55 2.0 7.0 0.00 0.00 0.00 1015.6
20260502021540 68 290 2.0 7.0 0.00 0.00 0.00 1015.5
20260502021026 68 290 2.0 9.0 0.00 0.00 0.00 1015.4
20260502020527 69 298 2.0 9.0 0.00 0.00 0.00 1015.5
20260502020042 69 234 2.0 7.0 0.00 0.00 0.00 1015.4
20260502015527 70 248 2.0 9.0 0.00 0.00 0.00 1015.4
20260502015027 70 283 1.0 10.0 0.00 0.00 0.00 1015.2
20260502014551 70 63 2.0 11.0 0.00 0.00 0.00 1015.4
20260502014026 70 63 3.0 11.0 0.00 0.00 0.00 1015.4
20260502013527 70 230 3.0 10.0 0.00 0.00 0.00 1015.4
20260502013041 71 288 2.0 6.0 0.00 0.00 0.00 1015.4
20260502012526 72 170 1.0 9.0 0.00 0.00 0.00 1015.4
20260502012027 72 0 2.0 9.0 0.00 0.00 0.00 1015.3
20260502011545 72 0 3.0 9.0 0.00 0.00 0.00 1015.3
20260502011026 72 210 4.0 9.0 0.00 0.00 0.00 1015.3
20260502010526 74 307 1.0 10.0 0.00 0.00 0.00 1015.4
20260502010039 73 99 2.0 10.0 0.00 0.00 0.00 1015.4
20260502005527 73 290 4.0 10.0 0.00 0.00 0.00 1015.4
20260502005027 76 268 1.0 5.0 0.00 0.00 0.00 1015.3
20260502004537 76 0 1.0 9.0 0.00 0.00 0.00 1015.3
20260502004026 77 302 1.0 9.0 0.00 0.00 0.00 1015.2
20260502003527 77 239 2.0 9.0 0.00 0.00 0.00 1015.2
20260502003036 81 311 2.0 8.0 0.00 0.00 0.00 1015.3
20260502002527 80 154 2.0 10.0 0.00 0.00 0.00 1015.4
20260502002026 80 268 4.0 10.0 0.00 0.00 0.00 1015.3
20260502001536 81 49 2.0 10.0 0.00 0.00 0.00 1015.4
20260502001028 78 5 3.0 10.0 0.00 0.00 0.00 1015.3
20260502000527 79 280 3.0 8.0 0.00 0.00 0.00 1015.3
20260502000056 82 295 2.0 7.0 0.00 0.00 0.00 1015.1
20260501235527 80 0 2.0 7.0 0.00 0.00 0.00 1015.2
20260501235027 80 263 1.0 7.0 0.00 0.00 0.00 1015.3
20260501234538 82 277 1.0 7.0 0.00 0.00 0.00 1015.3
20260501234027 80 290 1.0 5.0 0.00 0.00 0.00 1015.3
20260501233529 80 99 1.0 5.0 0.00 0.00 0.00 1015.4
20260501233036 82 268 1.0 6.0 0.00 0.00 0.00 1015.4
20260501232526 83 259 1.0 6.0 0.00 0.00 0.00 1015.4
20260501232026 82 268 2.0 6.0 0.00 0.00 0.00 1015.3
20260501231536 84 141 1.0 5.0 0.00 0.00 0.00 1015.5
20260501231026 81 280 2.0 5.0 0.00 0.00 0.00 1015.5
20260501230526 83 286 1.0 7.0 0.00 0.00 0.00 1015.7
20260501230036 82 236 1.0 7.0 0.00 0.00 0.00 1015.6
20260501225526 84 0 1.0 6.0 0.00 0.00 0.00 1015.6
20260501225027 83 0 1.0 6.0 0.00 0.00 0.00 1015.6
20260501224536 84 232 1.0 4.0 0.00 0.00 0.00 1015.6
20260501224027 84 302 1.0 4.0 0.00 0.00 0.00 1015.7
20260501223527 83 311 1.0 5.0 0.00 0.00 0.00 1015.9
20260501223040 83 0 1.0 5.0 0.00 0.00 0.00 1016.0
20260501222527 84 355 1.0 5.0 0.00 0.00 0.00 1015.9
20260501222027 84 0 1.0 5.0 0.00 0.00 0.00 1016.0
20260501221538 83 74 1.0 5.0 0.00 0.00 0.00 1016.1
20260501221027 84 107 1.0 4.0 0.00 0.00 0.00 1016.3
20260501220526 82 317 1.0 6.0 0.00 0.00 0.00 1016.4
20260501220040 82 183 1.0 6.0 0.00 0.00 0.00 1016.6
20260501215527 81 210 1.0 5.0 0.00 0.00 0.00 1016.7
20260501215028 82 105 1.0 5.0 0.00 0.00 0.00 1016.8
20260501214540 81 355 1.0 5.0 0.00 0.00 0.00 1016.6
20260501214027 80 112 2.0 8.0 0.00 0.00 0.00 1016.9
20260501213530 81 248 1.0 8.0 0.00 0.00 0.00 1016.6
20260501213036 79 109 2.0 8.0 0.00 0.00 0.00 1016.8
20260501212528 80 268 1.0 6.0 0.00 0.00 0.00 1016.9
20260501212028 78 112 1.0 5.0 0.00 0.00 0.00 1016.8
20260501211542 78 311 2.0 5.0 0.00 0.00 0.00 1016.9
20260501211030 77 141 1.0 5.0 0.00 0.00 0.00 1016.9
20260501210526 78 295 2.0 6.0 0.00 0.00 0.00 1016.9
20260501210036 78 274 1.0 6.0 0.00 0.00 0.00 1017.0
20260501205527 75 0 1.0 5.0 0.00 0.00 0.00 1017.0
20260501205027 75 295 1.0 7.0 0.00 0.00 0.00 1017.1
20260501204540 75 302 1.0 7.0 0.00 0.00 0.00 1017.0
20260501204026 74 280 1.0 5.0 0.00 0.00 0.00 1017.1
20260501203529 75 268 2.0 5.0 0.00 0.00 0.00 1017.0
20260501203037 77 31 1.0 6.0 0.00 0.00 0.00 1017.0
20260501202527 76 329 1.0 6.0 0.00 0.00 0.00 1017.1
20260501202027 77 219 1.0 5.0 0.00 0.00 0.00 1017.2
20260501201546 77 0 1.0 6.0 0.00 0.00 0.00 1017.1
20260501201026 77 99 1.0 6.0 0.00 0.00 0.00 1017.1
20260501200526 76 268 1.0 6.0 0.00 0.00 0.00 1017.2
20260501200041 74 295 1.0 6.0 0.00 0.00 0.00 1017.2
20260501195527 74 201 1.0 5.0 0.00 0.00 0.00 1017.2
20260501195027 74 0 1.0 5.0 0.00 0.00 0.00 1017.2
20260501194543 74 99 2.0 5.0 0.00 0.00 0.00 1017.4
20260501194027 74 112 1.0 6.0 0.00 0.00 0.00 1017.3
20260501193526 73 300 1.0 6.0 0.00 0.00 0.00 1017.3
20260501193039 72 288 1.0 5.0 0.00 0.00 0.00 1017.3
20260501192527 73 0 1.0 7.0 0.00 0.00 0.00 1017.5
20260501192026 73 280 2.0 7.0 0.00 0.00 0.00 1017.6
20260501191536 73 0 1.0 5.0 0.00 0.00 0.00 1017.6